METEOR 2-7 DEB, 28601

Orbit data source: Space-Track

METEOR 2-7 DEB, 28601 is space debris in LEO originally from a launch on Thu, 14 May 1981 UTC launched from the Plesetsk Missile And Space Complex (PKMTR). Debris objects in space refer to the collection of defunct objects orbiting the Earth. Examples of debris include non-operational satellites, rocket bodies, and fragments generated from explosions, collisions, or faulty payload assembly.

Loading next visibility...
METEOR 2-7 DEB details
Identifier
28601, 1981-043K
Orbit
LEO
Last TLE update9 months ago
Origin
Flag of CISKVR (CIS)
ManufacturerUnknown
MissionSpacecraft
Bus & MotorUnknown
MassUnknown
Launch date (UTC)
1981-05-14 (44 years ago)
Launch vehicleUnknown
Launch site
Plesetsk Missile And Space Complex (PKMTR)
Object type
Payload
Rocket body
Debris
Shape & HBRUnknown
Radar Cross SectionSmall (<0.1 m²)

Expand to show TLE details & history

TLE from 9 months ago
0 METEOR 2-7 DEB
1 28601U 81043K   24096.87954368  .00017010  00000-0  33225-2 0  9990
2 28601  81.2462 298.0698 0035012 316.8036  43.0418 14.62445333 45679
Epoch: 2024-04-05T21:06Z
Definitive object data (Epoch: 2024-04-05T21:06:32.573Z)
Latitude-0.00004°
Longitude146.77802°
Altitude670.222 km
Speed7.531 km/s
True Right ascension19h 52m 16s
True Declination0° 00' 00"
Sunlit
Object was in daylight at TLE epoch
Visualization TLE readout
Latitude2.79719°
Longitude-135.23195°
Altitude674.122 km
Speed7.51 km/s
Apparent Right ascension01h 25m 41s
Apparent Declination-17° 26' 35"
Sunlit
Object is in daylight
Visualization observer readout
Local Sidereal Time13:56:35
Azimuth18.799° NNE
Elevation-66.552°
Doppler factor1
Orbital elements
Apogee altitude707.114 km
Perigee altitude657.673 km
Semi-major axis7,060.53 km
Eccentricity0.0035012
Inclination81.2462°
RAAN298.0698°
Arg. of periapsis316.8036°
True anomaly43.31651°
Mean anomaly43.0418°
Eccentric anomaly43.17907°
Mean motion3.65837 °/min
BSTAR0.0033225
Orbital period98.4 mins
Loading maneuver chart data...
Loading historical data...
Loading historical data...
Loading historical data...
Loading historical data...
Loading historical data...
Loading historical data...
Loading historical data...

METEOR 2-7 DEB Visibility forecast

Observer location: undefined°, undefined

Span
Click to sort rows by Start time (UTC) header in descending order
Start Az.
Max El. time (UTC)
Max El. Az.
Max El.
End time (UTC)
End Az.
8 mins2024-12-27 02:05:43.636Z191.008° SSW2024-12-27 02:09:43.636Z226.186° WSW44.36°2024-12-27 02:13:43.636Z6.781° NNE
6 mins2024-12-27 12:20:43.636Z19.125° NNE2024-12-27 12:23:43.636Z77.343° E28.59°2024-12-27 12:26:43.636Z132.314° SE
4 mins2024-12-27 14:00:43.636Z295.438° NW2024-12-27 14:01:43.636Z278.263° WNW19.17°2024-12-27 14:04:43.636Z230.412° WSW
|